www.pogodaiklimat.ru

Погода и климат >> Архив погоды >> Тунис >> Бея


ПОГОДА в Бее

  • Прогноз погоды в Бее
  • Монитор погоды в Бее

АРХИВ ПОГОДЫ в Бее

Время (UTC), дата Ветер
(напр.,м/с)
 
Видим.   Явления Облачность Т
(С)
Тd
(С)
f
(%)
Тe
(С)
Тes
(С)
Комфортность P
(гПа)
Po
(гПа)
Тmin
(С)
Tmax
(С)
R
(мм)
R24
(мм)
S
(см)
00 14.08 СЗ 2-4
{13}
н/о н/о +22.6 +17.7 74 +28 +28 душно 1014.5 996.3 1
03 14.08 ЮЗ 2-5
{10}
н/о н/о +21.9 +17.1 74 +26 +26 душно 1016.7 998.4 0.2
06 14.08 З 1 20 км 6/4 800 м
[Cu med, cong Ac cast]
+23.1 +17.8 72 +29 +29 очень
душно
1017.1 998.9 +21.1 1
12 14.08 ЮЗ 5 20 км 1/1 800 м
[Cu med, cong]
+30.0 +13.7 37 +32 +40 жарко 1017.3 999.5
15 14.08 ЮЗ 4-9
{12}
н/о н/о +29.0 +13.6 39 +31 +31 жарко 1017.3 999.4
18 14.08 ЮЗ 4-9
{12}
н/о н/о +25.3 +15.6 55 +28 +28 жарко 1017.6 999.5 +30.6
21 14.08 Ю 1-4
{8}
н/о н/о +22.4 +16.0 67 +27 +27 душно 1018.9 1000.6
00 15.08 штиль 0-2
{8}
н/о н/о +21.5 +16.0 71 +25 +25 комфорт 1018.6 1000.3
03 15.08 штиль 0-1
{3}
н/о н/о +19.7 +15.6 77 +22 +22 комфорт 1018.0 999.6
06 15.08 СВ 2 20 км 3/3 800 м
[Cu med, cong Ac cast]
+20.8 +15.6 72 +25 +26 комфорт 1018.8 1000.4 +19.2
09 15.08 Ю 3 20 км 6/4 800 м
[Cu med, cong Ac cast]
+26.6 +16.2 53 +30 +35 душно 1018.6 1000.6
12 15.08 ЮЗ 3 20 км 6/5 800 м
[Cu med, cong Ac cast]
+30.0 +16.8 45 +34 +40 очень
душно
1017.6 999.8
06 16.08 СВ 1 20 км ясно +20.1 +15.3 74 +24 +25 комфорт 1018.7 1000.3 +17.1
09 16.08 Ю 2 20 км 1/1 800 м
[Cu med, cong]
+28.2 +18.3 55 +33 +45 очень
душно
1018.9 1001.0
12 16.08 ЮЗ 3 20 км 1/1 800 м
[Cu med, cong]
+30.8 +16.8 43 +34 +48 очень
душно
1017.9 1000.2
06 17.08 штиль 0 20 км ясно +18.3 +16.1 87 +19 +21 1018.2 999.7 +17.2
09 17.08 СЗ 1 20 км ясно +29.1 +16.6 47 +33 +48 очень
душно
1018.0 1000.2
12 17.08 ЮЗ 2 20 км ясно +35.7 +10.0 21 +35 +52 опасность
солнечного
удара
1016.0 998.5
15 17.08 0
{6}
н/о н/о +36.6 +12.7 24 1014.7 997.3
18 17.08 СЗ 2-5
{7}
н/о н/о +31.3 +14.4 36 +33 +33 жарко 1014.9 997.2 +37.1
21 17.08 В 1-2
{5}
н/о н/о +25.5 +14.6 51 +28 +28 жарко 1016.7 998.6
00 18.08 штиль 0-1
{5}
н/о н/о +22.1 +13.7 59 +25 +25 комфорт 1016.4 998.1
03 18.08 ЮЗ 1-1
{2}
н/о н/о +20.4 +13.8 66 +24 +24 комфорт 1015.0 996.7
06 18.08 штиль 0-1
{2}
н/о н/о +20.5 +14.4 68 +23 +23 комфорт 1015.2 996.9 +19.1 +31.1
09 18.08 СВ 3-6
{6}
н/о н/о +31.6 +17.9 44 +36 +36 очень
душно
1014.4 996.8
12 18.08 СВ 2-5
{6}
н/о н/о +36.9 +13.6 25 +37 +37 очень
жарко
1012.7 995.4
15 18.08 СВ 1-2
{5}
н/о н/о +39.0 +12.0 20 +38 +38 очень
жарко
1010.6 993.4
18 18.08 СВ 4-9
{11}
н/о н/о +33.4 +18.3 41 +38 +38 очень
душно
1011.1 993.6 +40.0
21 18.08 С 2-6
{9}
н/о н/о +29.4 +16.6 46 +33 +33 душно 1013.0 995.3
00 19.08 В 2-3
{9}
н/о н/о +26.6 +17.7 58 +31 +31 душно 1013.6 995.7
03 19.08 З 1-2
{4}
н/о н/о +24.1 +16.4 62 +28 +28 душно 1013.0 994.9
06 19.08 штиль 0
{4}
н/о н/о +22.9 +15.7 64 +27 +27 душно 1013.7 995.6 +21.7 +33.1
09 19.08 СВ 2 20 км ясно +32.0 +17.8 43 +36 +49 очень
душно
1013.6 996.0
12 19.08 СВ 3 20 км ясно +36.6 +16.2 30 +39 +53 опасность
солнечного
удара
1012.7 995.4
15 19.08 СВ 2-4
{7}
н/о н/о +39.1 +16.1 26 +41 +41 опасность
перегрева
1011.3 994.1
18 19.08 СВ 5-8
{13}
н/о н/о +32.4 +19.3 46 +38 +38 очень
душно
1012.6 995.1 +39.5
21 19.08 СВ 3-5
{10}
н/о н/о +27.9 +19.1 59 +33 +33 очень
душно
1016.0 998.1
00 20.08 СЗ 1-4
{10}
н/о н/о +26.9 +18.5 60 +32 +32 очень
душно
1014.7 996.8
03 20.08 СВ 3-5
{7}
н/о н/о +25.2 +19.8 72 +31 +31 очень
душно
1014.9 996.9
06 20.08 СВ 4 20 км ясно +25.0 +19.6 72 +30 +31 душно 1015.1 997.1 +24.6
09 20.08 В 4 20 км ясно +31.9 +16.6 40 +35 +43 очень
душно
1014.9 997.3
12 20.08 СВ 5 20 км ясно +37.0 +14.3 26 +38 +47 душно 1013.1 995.8
15 20.08 СВ 5-8
{11}
н/о н/о +38.6 +13.8 23 +39 +39 душно 1011.6 994.4
18 20.08 СВ 6-12
{13}
н/о н/о +31.7 +16.4 40 +35 +35 очень
душно
1013.1 995.5 +39.0
21 20.08 СВ 2-4
{9}
н/о н/о +27.8 +17.0 52 +32 +32 душно 1015.8 997.9

 

Местоположение метеостанции Бея (Тунис): широта 36.73 долгота 9.18 высота над уровнем моря 159 м.

В архиве по умолчанию представлена погода в Бее за последнюю неделю. Архивные данные за месяц целиком и за предыдущие месяцы, начиная с января 2011 года, Вы можете получить, выбрав интересующий диапазон дат из раскрывающегося списка и нажав кнопку "Ввод!".


*Определитесь, кто Вы:
робот инопланетянин человек

Внимание! Время в таблицах - всемирное. Для получения местного времени необходимо прибавить поправку, которая равна 1 ч.

Смотрите также архив погоды в соседних городах и на ближайших метеорологических станциях:

Погода в Джендубе (Тунис) (44 км)
Погода в Табарке (Тунис) (45 км)
Погода в Силиане (Тунис) (75 км)
Погода в Эль-Кефе (Тунис) (79 км)
Погода в Бизерте (Тунис) (80 км)
Погода в Могхране (Тунис) (87 км)
Погода в Тунисе (Тунис) (94 км)
Погода в Тарфе (Алжир) (98 км)
Погода в Сук-Ахрасе (Алжир) (119 км)
Погода в Аннабе (Алжир) (122 км)

Пояснения к столбцам:

Ветер - указаны скорость ветра в м/с - средняя за 10 мин, порывы в срок и между сроками (в фигурных скобках) и направление, откуда дует ветер: С - северный, СВ - северо-восточный, В - восточный, ЮВ - юго-восточный, Ю - южный, ЮЗ - юго-западный, З - западный, СЗ - северо-западный.
Видимость - горизонтальная дальность видимости в метрах или километрах. При видимости от 1 до 10 км при отсутствии осадков обычно наблюдается дымка, при ухудшении видимости до 1 км и менее - туман. В сухую погоду видимость может ухудшаться дымом, пылью или мглою.
Явления - указаны атмосферные явления, наблюдавшиеся в срок или в последний час перед сроком; фигурными скобками обозначены явления, наблюдавшиеся между сроками (за 1-3 часа до срока); квадратными скобками обозначены град или гололедные отложения с указанием их диаметра в мм.
Облачность - указаны через наклонную черту общая и нижняя облачность в баллах и высота нижней границы облаков в метрах; квадратными скобками обозначены формы облаков: Ci - перистые, Cs - перисто-слоистые, Cc - перисто-кучевые, Ac - высококучевые, As - высокослоистые, Sc - слоисто-кучевые, Ns - слоисто-дождевые, Cu - кучевые, Cb - кучево-дождевые. Подробнее классификацию облаков см. в Атласе облаков (PDF).
T - Температура воздуха - температура, измеренная на высоте 2 м над землей.
Td - Температура точки росы - температура, при понижении до которой содержащийся в воздухе водяной пар достигнет насыщения.
f - Относительная влажность воздуха - влажноcть воздуха, измеренная на высоте 2 м над землей.
Te - Эффективная температура - температура, которую ощущает одетый по сезону человек в тени. Характеристика душности погоды. При расчете учитывается влияние влажности воздуха и скорости ветра на теплоощущения человека.
Tes - Эффективная температура на солнце - температура, которую ощущает человек, с поправкой на солнечный нагрев. Характеристика знойности погоды. Зависит от высоты солнца над горизонтом, облачности и скорости ветра. Ночью, в пасмурную погоду, а также при ветре 12 м/с и более поправка равна нулю.
P - Атмосферное давление - приведенное к уровню моря атмосферное давление.
Po - Атмосферное давление - измеренное на уровне метеостанции атмосферное давление.
Tmin - Минимальная температура - минимум температуры воздуха на высоте 2 м над землей.
Tmax - Максимальная температура - максимум температуры воздуха на высоте 2 м над землей.
R - Количество осадков - Количество выпавших осадков за период времени, мм. При наведении курсора мыши на число - период времени, за который выпало указанное количество осадков.
R24 - Количество осадков - Количество выпавших осадков за 24 часа, мм.
S - Снежный покров - Высота снежного покрова, см. При наведении курсора мыши на число - состояние снежного покрова и степень покрытия местности в баллах.